CZ-6A DEB

Satellite information

Favourite Embed

Satellite Type and Status

DEBRISIN ORBIT

Key statistics

Satellite CZ-6A DEB at a glance.

Uptime

1027

Days in orbit

Revolutions

≈ 14.7

Per day

Orbit

SSO

Sun Synchronous Orbit

Inclination

99.1

Latest

Satellite identification and parameters

Extended collection of information and parameters for CZ-6A DEB.

Object identification

Identified? True

Debris? True

Object name: CZ-6A DEB

International designator: 2022-151SB

Object number (NORAD): 54938

Object ID (CCSDS): 54938

Country: PEOPLES REPUBLIC OF CHINA (PRC)

Current information (Y/N): Y

RCS size: SMALL

Orbital parameters

Period: 97.707 minutes

Inclination: 99.1284 deg

SMA: 7027.137 km

Apoapsis: 710.301 km

Periapsis: 587.703 km

RAAN: 0.2649 deg

Eccentricy: 0.00872317

Argument of periapsis: 109.7912 deg

Mean anomaly: 251.2724 deg

Mean motion: 14.73788338 rev/day

Mean motion (dot): 0.0003377 rev/day2

B* drag term: 0.0048453977 1/REarth

Two-line elements (TLE)

Creation date: Sept. 1, 2025, 10:16 a.m.

Reference frame: TEME

Reference center: EARTH

Epoch: Sept. 1, 2025, 6:11 a.m. UTC

TLE line 0: 0 CZ-6A DEB

TLE line 1: 1 54938U 22151SB 25244.25803448 .00033770 00000-0 48454-2 0 9998

TLE line 2: 2 54938 99.1284 0.2649 0087232 109.7912 251.2724 14.73788338148183

Live tracking on map

Real-time ground track for satellite CZ-6A DEB.

In-orbit conjunctions

A list of the most updated potential collisions computed for object CZ-6A DEB.

Target Orbit TCA Probability of collision Miss distance Type
SL-16 DEB LEO 2025-01-21 03:40:53 0.0001097369 271.0 (m) DEBRIS
COSMOS 1275 DEB LEO 2024-11-11 17:43:13 0.0002436773 870.0 (m) DEBRIS
MINOTAUR DEB SSO 2024-09-25 11:59:56 0.0002446121 333.0 (m) DEBRIS

Associated space launch

Chinese satellite reported for atmospheric/ocean/environmental/spatial parameter research purposes, details TBD.

CZ-6A DEB was lifted into orbit during the mission ‘Long March 6A | Yunhai 3’, on board a Long March 6A space rocket.

The launch took place on Nov. 11, 2022, 10:52 p.m. from Launch Complex 9A.

For more information about the launch, click the button.

Launch to space Long March 6A | Yunhai 3
Long March 6A | Yunhai 3

Agency: N/A

Status: Launch Successful

Launch date: Nov. 11, 2022, 10:52 p.m. UTC

Rocket: Long March 6A

Launch pad: Launch Complex 9A

Location: Taiyuan Satellite Launch Center, People's Republic of China

...

Latest news about this satellite

There are no fresh news available about this satellite. Check back as we update our databases every day.


Newsletter sign-up

Weekly statistics, charts and insights to help you stay on top of the space industry.